Location: Niedergestelen
(46.3129°N, 7.7822°E)
Time: 19:13:21
(UTC+00:00)

SKYMED 2 - Pass Details

Date: 01 December 2020
Orbit: 621 x 623 km, 97.9° (Epoch: 27 January)

Event Time Altitude Azimuth Distance (km) Brightness Sun altitude
Exits shadow 18:11:55 22° 353° (N) 1,364 5.3 -24.8°
Maximum altitude 18:14:25 48° 289° (WNW) 818 4.4 -25.2°
Drops below altitude 10° 18:18:35 10° 215° (SW) 1,990 6.6 -25.9°
Sets 18:20:48 0° 210° (SSW) 2,892 7.5 -26.3°
